Regional Weather Roundup
Issued by NWS

Home | Current Version | Previous Version | Text Only | Print | Product List | Glossary Off
Versions: 1 2 3 4 5 6 7 8 9 10 11 12 13 14 15 16 17 18 19 20 21 22 23 24 25 26 27 28 29 30 31 32 33 34 35 36 37 38 39 40 41 42 43 44 45 46 47 48 49 50

876
ASUS43 KLOT 290308
RWRIL

ILLINOIS REGIONAL WEATHER ROUNDUP
NATIONAL WEATHER SERVICE CHICAGO/ROMEOVILLE IL
1000 PM CDT SUN AUG 28 2016

NOTE: "FAIR" INDICATES FEW OR NO CLOUDS BELOW 12,000 FEET WITH NO
SIGNIFICANT WEATHER AND/OR OBSTRUCTIONS TO VISIBILITY.

* THESE STATIONS ARE NOT UNDER NWS QUALITY CONTROL. THEY ALSO MAY NOT
  REPORT WEATHER SUCH AS PRECIPITATION OR FOG.

ILZ001-002-007-009-015-016-024-290400-
NORTHWEST ILLINOIS

CITY           SKY/WX    TMP DP  RH WIND       PRES   REMARKS
MOLINE         CLOUDY    73  69  87 CALM      30.16R
STERLING*      CLOUDY    71  71 100 E6        30.19R
SAVANNA*       CLOUDY    71  69  95 CALM      30.19R
$$

ILZ003-004-008-010-011-017-018-290400-
NORTH CENTRAL ILLINOIS

CITY           SKY/WX    TMP DP  RH WIND       PRES   REMARKS
ROCKFORD       CLOUDY    73  68  84 SE5       30.21R
FREEPORT*      CLOUDY    68  67  96 CALM      30.22R
ROCHELLE*      CLOUDY    69  68  96 E7        30.21R
DE KALB*       PTCLDY    70  69  96 E3        30.23R
$$

ILZ005-006-012>014-019>023-290400-
NORTHEAST ILLINOIS

CITY           SKY/WX    TMP DP  RH WIND       PRES   REMARKS
CHICAGO-OHARE  MOCLDY    73  69  87 E6        30.21R
CHICAGO-MIDWAY CLOUDY    75  69  81 NE12      30.21R
AURORA         MOCLDY    71  68  90 VRB3      30.21R
LANSING*       CLEAR     72  72  99 NE5       30.21R
JOLIET*        PTCLDY    72  71  96 CALM      30.21R
WAUKEGAN       CLOUDY    69  67  93 CALM      30.22R
DUPAGE AIRPORT CLOUDY    73  68  84 NE5       30.21R
KANKAKEE*      CLEAR     71  70  97 CALM      30.21R
WHEELING       MOCLDY    72  69  90 CALM      30.22R
MORRIS*        PTCLDY    69  68  96 CALM      30.20R
ROMEOVILLE*    PTCLDY    69  69 100 CALM      30.21R
$$

LMZ740>746-290400-
SOUTHERN LAKE MICHIGAN

STATION/POSITION SKY/WX   TEMP    WIND        PRES    VSBY  WAVE
                          AIR SEA DIR/SP/G                  HT/PER
                          (F)     (DEG/KT/KT) (MB)    (MI)  (FT/S)
SOUTHERN BUOY              74 75   50/  8/ 10 1022.5R         1
WILMETTE HARBOR            74 74   90/  8/ 10   N/A           1/ 3
HARRISON CRIB              75      60/ 14/ 14   N/A
BURNHAM HARBOR             73      60/  6/ 10   N/A
CALUMET HARBOR             72      40/  5/  8 1021.9R
BURNS HARBOR               74      80/  5/ 12 1023.0R
MICHIGAN CITY              74      30/ 13/ 14   N/A
MICHIGAN CITY 6N           75 76   60/ 10/ 12   N/A           2/ 3
ST. JOSEPH                 73 74   40/  6/  8 1022.7R         2/ 3
$$

ILZ025>027-034>036-040-047-049-050-058-095>099-290400-
WEST-CENTRAL ILLINOIS

CITY           SKY/WX    TMP DP  RH WIND       PRES   REMARKS
QUINCY         CLEAR     75  74  96 E6        30.16R
GALESBURG*     PTCLDY    68  67  96 CALM      30.17S
MACOMB*        CLEAR     69  68  97 CALM      30.19R
JACKSONVILLE*  CLEAR     74  71  91 E6        30.15S
PITTSFIELD*    CLEAR     77  75  93 NE3       30.16S
$$

ILZ028>032-037-038-041>044-048-051>054-059>061-290400-
CENTRAL ILLINOIS

CITY           SKY/WX    TMP DP  RH WIND       PRES   REMARKS
PONTIAC        PTCLDY    71  71 100 NE5       30.20S
BLOOMINGTON    CLEAR     70  69  97 NE8       30.20R
DECATUR        CLEAR     75  72  90 NE6       30.17R
PEORIA         PTCLDY    71  71 100 NE6       30.18R
LACON*         PTCLDY    69  67  94 E6        30.19R
LINCOLN*       CLEAR     72  71  95 NE5       30.17S
SPRINGFIELD    CLEAR     75  71  87 E3        30.16S
TAYLORVILLE    CLEAR     74  73  96 CALM      30.16R
$$

ILZ033-039-045-046-055>057-062-063-290400-
EAST-CENTRAL ILLINOIS

CITY           SKY/WX    TMP DP  RH WIND       PRES   REMARKS
CHAMPAIGN      CLEAR     75  72  90 NE5       30.18R
RANTOUL*       PTCLDY    76  73  92 NE7       30.19R
MATTOON        CLEAR     78  74  87 CALM      30.16R HX  81
PARIS*         CLEAR     75  74  97 CALM      30.18R
$$

ILZ079-100>102-290400-
SOUTHWEST ILLINOIS

CITY           SKY/WX    TMP DP  RH WIND       PRES   REMARKS
ALTON          PTCLDY    77  73  88 CALM      30.15R
BELLEVILLE     CLEAR     80  74  79 NE3       30.13R HX  85
CAHOKIA*       CLEAR     80  73  79 CALM      30.13R HX  84
SPARTA*        CLEAR     78  74  90 E3        30.14S
$$

ILZ064>066-069>071-074>076-080>082-084>086-088>090-092>094-290400-
SOUTH-CENTRAL ILLINOIS

CITY           SKY/WX    TMP DP  RH WIND       PRES   REMARKS
CARBONDALE     CLEAR     76  74  93 CALM      30.13R
CAIRO*         CLEAR     75  74  98 CALM      30.12R
EFFINGHAM*     CLEAR     77  74  92 CALM      30.18R
MARION         CLEAR     77  75  94 CALM      30.14R
MT. VERNON     CLEAR     77  70  78 CALM      30.15S
CENTRALIA*     CLEAR     78  75  91 E5        30.14R HX  80
SALEM*         CLEAR     80  74  82 CALM      30.15S HX  85
METROPOLIS*    CLEAR     76  75  97 CALM      30.13R FOG
$$

ILZ067-068-072-073-078-083-087-091-290400-
SOUTHEAST ILLINOIS

CITY           SKY/WX    TMP DP  RH WIND       PRES   REMARKS
LAWRENCEVILLE  TSTM      75  72  90 SE18G29   30.19R
FLORA*         CLOUDY    75  70  85 CALM      30.15S
FAIRFIELD*     CLEAR     75  71  87 CALM      30.13S
HARRISBURG*    CLEAR     77  76  94 CALM      30.13S
ROBINSON*      CLOUDY    75  73  91 S7        30.18R
CARMI*         CLEAR     77  76  97 CALM      30.13S
$$

ABBREVIATIONS USED IN REMARKS
   TC - TEMPERATURE IN CELSIUS
  WCI - WIND CHILL INDEX
   HX - HEAT INDEX
  VSB - VISIBILITY
$$





USA.gov is the U.S. government's official web portal to all federal, state and local government web resources and services.